Location: Parc National du Mont-Orford
(45.3122°N, 72.2403°W)
Time: 07:54:24
(UTC-04:00)

Envisat - Pass Details

Date: 26 January 2018
Orbit: 764 x 766 km, 98.2° (Epoch: 20 May)

Event Time Altitude Azimuth Distance (km) Brightness Sun altitude
Exits shadow 20:04:53 35° 284° (WNW) 1,211 4.4 -34.6°
Drops below altitude 10° 20:08:49 10° 331° (NNW) 2,309 5.8 -35.2°
Sets 20:11:18 0° 340° (NNW) 3,240 6.6 -35.7°
